Preview of NWS' New Version of Forecast
This preview is not operational and should not be used for support decisions.

Regional Weather Roundup (RWR)

Issued by National Weather Service (NWS)

                            
000
ASUS44 KMEG 221310
RWRTN 
TENNESSEE HOURLY STATE WEATHER ROUNDUP
NATIONAL WEATHER SERVICE MEMPHIS TN
800 AM CDT WED MAY 22 2019

TNZ002-004-019-021-049-052-054-088>092-221400-
WEST TENNESSEE
  
CITY           SKY/WX    TMP DP  RH WIND       PRES   REMARKS
MEMPHIS INTL   CLOUDY    76  71  85 SW12G21   29.91R                  
NWS MEMPHIS      N/A     75 N/A N/A MISG        N/A                   
JACKSON        CLOUDY    74  68  81 S8        29.94R                  
DYERSBURG      LGT RAIN  66  64  93 NW9       29.95R                  
SOMERVILLE     PTSUNNY   73  70  88 S8        29.92R                  
COVINGTON      CLOUDY    66  66 100 NW8       29.92R                  
UNION CITY     CLOUDY    66  64  94 E3        29.93R                  
BOLIVAR        CLOUDY    75  70  83 S8G15     29.93R                  
PARIS          MOSUNNY   68  64  88 VRB3      29.92F                  
LEXINGTON      PTSUNNY   75  68  78 S10G22    29.95R                  
SELMER         MOSUNNY   73  68  83 S10       29.95R                  
SAVANNAH       PTSUNNY   77  70  78 S10       29.96R                  
$$

TNZ008-025-027-028-033-062-065-066-221400-
NORTH MIDDLE TENNESSEE
  
CITY           SKY/WX    TMP DP  RH WIND       PRES   REMARKS
NASHVILLE      CLOUDY    77  64  64 SW15G22   30.01R                  
DICKSON        SUNNY     73  66  78 S13       29.97S                  
PORTLAND       SUNNY     73  66  78 S10       29.99R                  
CLARKSVILLE    FAIR      75  65  70 S17G23    29.95R                  
LEBANON        SUNNY     77  66  69 SW16      29.99R                  
SMYRNA         FAIR      76  67  73 SW8       30.02R                  
MURFREESBORO   SUNNY     77  66  69 S9        29.99R                  
COOKEVILLE     SUNNY     75  63  64 S9        30.03S                  
LIVINGSTON     SUNNY     75  61  60 S8G16     30.03S                  
CROSSVILLE     FAIR      72  62  71 S6        30.10R                  
ROCKWOOD       SUNNY     72  63  73 CALM      30.08F                  
$$

TNZ061-075-076-078-094-096-097-221400-
SOUTH MIDDLE TENNESSEE
  
CITY           SKY/WX    TMP DP  RH WIND       PRES   REMARKS
LAWRENCEBURG   PTSUNNY   72  68  88 S7        30.01R                  
LEWISBURG      SUNNY     75  66  73 SW7       30.01R                  
FAYETTEVILLE   SUNNY     73  66  78 S9        30.02R                  
TULLAHOMA      SUNNY     73  64  73 SE6       30.03R                  
WINCHESTER     SUNNY     75  64  69 S7        30.04R                  
MCMINNVILLE    SUNNY     77  66  69 VRB3G12   30.03R                  
COLUMBIA       SUNNY     75  73  94 S9G16     29.99R                  
SHELBYVILLE    SUNNY     75  66  73 S13       30.02R                  
$$

TNZ017-018-042-046-047-221400-
NORTHEAST TENNESSEE
  
CITY           SKY/WX    TMP DP  RH WIND       PRES   REMARKS
TRI CITIES     FAIR      73  60  63 CALM      30.12S                  
ELIZABETHTON   FAIR      75  59  57 VRB7      30.13S                  
GREENEVILLE    SUNNY     72  61  68 NW5       30.10S                  
$$

TNZ012-013-036-069-073-074-221400-
CENTRAL EAST TENNESSEE
  
CITY           SKY/WX    TMP DP  RH WIND       PRES   REMARKS
KNOXVILLE      FAIR      73  62  68 NW5       30.07R                  
OAK RIDGE      PTSUNNY   70  60  70 E3        30.08S                  
DOWNTOWN KNOXV MOSUNNY   72  63  73 CALM      30.08R                  
GATLINBURG     SUNNY     73  63  68 W3        30.07R                  
MORRISTOWN     SUNNY     75  61  60 CALM      30.09R                  
JACKSBORO      SUNNY     68  61  77 CALM      30.12R                  
$$

TNZ083-085-099-221400-
SOUTHEAST TENNESSEE
  
CITY           SKY/WX    TMP DP  RH WIND       PRES   REMARKS
CHATTANOOGA    FAIR      75  65  70 S5        30.06S                  
DAYTON         SUNNY     75  66  73 CALM      30.05F                  
$$

SKY/WX REPORTED AS FAIR MEANS FEW OR NO CLOUDS BELOW
12 THOUSAND FEET.